This is the latest recevied weather packets stored in our database for station/object VE9LJW. If no packets are shown the sender has not sent any weather packets the latest 10 day(s).
| Time | Temp. | Humidity | Pressure | Rain* | Wind** | Luminosity | Snow |
|---|---|---|---|---|---|---|---|
| 1778276944 | 16.11° C | 61% | 1003 hPa | 0 mm | - | 170 W/m² | - |
| 1778276642 | 15.56° C | 61% | 1003 hPa | 0 mm | - | 170 W/m² | - |
| 1778276338 | 15.56° C | 60% | 1002.8 hPa | 0 mm | - | 137 W/m² | - |
| 1778276035 | 15.56° C | 61% | 1002.7 hPa | 0 mm | - | 71 W/m² | - |
| 1778275730 | 15.56° C | 57% | 1002.7 hPa | 0 mm | - | 83 W/m² | - |
| 1778275427 | 15.56° C | 59% | 1002.6 hPa | 0 mm | - | 72 W/m² | - |
| 1778275123 | 15.56° C | 55% | 1002.6 hPa | 0 mm | - | 59 W/m² | - |
| 1778274819 | 15.56° C | 56% | 1002.4 hPa | 0 mm | - | 51 W/m² | - |
| 1778274517 | 15.56° C | 55% | 1002.4 hPa | 0 mm | - | 56 W/m² | - |
| 1778274213 | 15° C | 55% | 1002.4 hPa | 0 mm | - | 65 W/m² | - |
| 1778273910 | 15.56° C | 55% | 1002.3 hPa | 0 mm | - | 77 W/m² | - |
| 1778273606 | 15° C | 58% | 1002.3 hPa | 0 mm | - | 117 W/m² | - |
| 1778273302 | 15° C | 60% | 1002.5 hPa | 0 mm | - | 82 W/m² | - |
| 1778273000 | 15° C | 63% | 1002.2 hPa | 0 mm | - | 53 W/m² | - |
| 1778272695 | 15° C | 61% | 1002.2 hPa | 0 mm | - | 65 W/m² | - |
| 1778272392 | 16.11° C | 51% | 1002.1 hPa | 0 mm | - | 83 W/m² | - |
| 1778272087 | 14.44° C | 52% | 1002.4 hPa | 0 mm | - | 458 W/m² | - |
| 1778271785 | 15.56° C | 55% | 1002.3 hPa | 0 mm | - | 475 W/m² | - |
| 1778271482 | 15° C | 59% | 1002.1 hPa | 0 mm | - | 390 W/m² | - |
| 1778271179 | 15.56° C | 57% | 1002.1 hPa | 0 mm | - | 157 W/m² | - |
| 1778270875 | 15.56° C | 55% | 1002.1 hPa | 0 mm | - | 114 W/m² | - |
| 1778270572 | 16.11° C | 53% | 1002.1 hPa | 0 mm | - | 180 W/m² | - |
| 1778270268 | 15.56° C | 51% | 1001.9 hPa | 0 mm | - | 409 W/m² | - |
| 1778269965 | 15° C | 60% | 1002 hPa | 0 mm | - | 300 W/m² | - |
| 1778269661 | 15° C | 56% | 1002 hPa | 0 mm | - | 316 W/m² | - |
* Rain latest hour (hover to see other rain measurements)
** Current wind speed in m/s (hover to see current wind gust speed)